This is the latest recevied weather packets stored in our database for station/object AE0NK. If no packets are shown the sender has not sent any weather packets the latest 10 day(s).
| Time | Temp. | Humidity | Pressure | Rain* | Wind** | Luminosity | Snow |
|---|---|---|---|---|---|---|---|
| 1777948108 | 16.67° C | 35% | 1004 hPa | 0 mm | - | 0 W/m² | - |
| 1777947806 | 16.67° C | 34% | 1003.6 hPa | 0 mm | - | 0 W/m² | - |
| 1777947504 | 16.67° C | 34% | 1003.5 hPa | 0 mm | - | 0 W/m² | - |
| 1777947203 | 16.67° C | 37% | 1003.3 hPa | 0 mm | - | 0 W/m² | - |
| 1777946901 | 17.22° C | 35% | 1003.2 hPa | 0 mm | - | 0 W/m² | - |
| 1777946599 | 17.22° C | 33% | 1003.1 hPa | 0 mm | - | 0 W/m² | - |
| 1777946295 | 17.22° C | 34% | 1002.9 hPa | 0 mm | - | 0 W/m² | - |
| 1777945993 | 17.22° C | 31% | 1002.9 hPa | 0 mm | - | 0 W/m² | - |
| 1777945709 | 17.78° C | 34% | 1002.8 hPa | 0 mm | - | 0 W/m² | - |
| 1777945408 | 17.78° C | 31% | 1002.6 hPa | 0 mm | - | 0 W/m² | - |
| 1777945106 | 17.78° C | 32% | 1002.5 hPa | 0 mm | - | 0 W/m² | - |
| 1777944803 | 17.78° C | 35% | 1002.3 hPa | 0 mm | - | 0 W/m² | - |
| 1777944501 | 18.33° C | 33% | 1002 hPa | 0 mm | - | 0 W/m² | - |
| 1777944218 | 18.33° C | 37% | 1001.9 hPa | 0 mm | - | 0 W/m² | - |
| 1777943910 | 18.33° C | 35% | 1001.8 hPa | 0 mm | - | 0 W/m² | - |
| 1777943607 | 18.89° C | 33% | 1001.9 hPa | 0 mm | - | 0 W/m² | - |
| 1777943306 | 18.89° C | 33% | 1001.6 hPa | 0 mm | - | 0 W/m² | - |
| 1777943007 | 18.89° C | 34% | 1001.4 hPa | 0 mm | - | 0 W/m² | - |
| 1777942702 | 19.44° C | 33% | 1001.3 hPa | 0 mm | - | 5 W/m² | - |
| 1777942398 | 19.44° C | 32% | 1001 hPa | 0 mm | - | 7 W/m² | - |
| 1777942117 | 20° C | 31% | 1000.8 hPa | 0 mm | - | 12 W/m² | - |
| 1777941809 | 20° C | 32% | 1000.7 hPa | 0 mm | - | 16 W/m² | - |
| 1777941507 | 20.56° C | 32% | 1000.6 hPa | 0 mm | - | 19 W/m² | - |
| 1777941204 | 21.11° C | 31% | 1000.4 hPa | 0 mm | - | 25 W/m² | - |
| 1777940903 | 21.11° C | 31% | 1000.2 hPa | 0 mm | - | 39 W/m² | - |
* Rain latest hour (hover to see other rain measurements)
** Current wind speed in m/s (hover to see current wind gust speed)